Cloud_Cover
100 98 5 0 27 97 85 100 100 13 96 100 100 100 100 100 88 100 100 100 100 100 100 59 31 100 100 100 100 100 100 100 100 100 100 100 100 100 100 97 6 7 90 84
100 100 100 100 10 95 75 100 100 69 94 100 100 100 68 100 100 100 96 91 72 25 35 49 89 10 22 89 98 100 96 99 100 100 100 100 100 100 100 82 46 10 70 48
100 100 100 100 100 100 100 100 100 100 100 100 100 97 100 100 100 100 72 7 5 6 77 77 46 100 98 6 4 5 98 100 100 72 100 97 93 100 100 100 94 90 19 95
100 100 100 100 100 100 100 100 100 31 99 100 100 100 98 40 85 100 30 40 5 25 59 58 35 32 15 3 3 1 4 49 87 69 81 75 70 71 77 100 88 11 90 16
100 100 100 100 100 100 100 100 100 100 8 71 100 88 100 100 100 98 47 5 96 100 33 81 100 100 96 14 94 89 75 77 100 50 5 5 5 5 5 5 5 6 100 22
100 100 100 100 100 100 100 100 100 94 92 99 100 100 57 86 100 87 65 100 96 100 92 100 57 100 26 73 5 33 5 80 100 7 6 59 21 0 5 5 4 5 5 21
97 100 100 100 100 100 100 100 100 100 100 94 67 83 69 94 100 95 100 100 100 100 100 81 19 44 5 5 5 5 20 49 100 80 100 100 60 0 0 0 0 0 1 0
5 15 100 100 100 100 100 100 100 100 100 100 92 100 100 100 100 100 100 100 100 100 100 90 45 5 5 1 0 0 2 24 100 100 100 100 100 93 56 5 3 17 5 49
100 100 89 99 100 100 100 100 100 100 100 84 100 100 100 100 100 100 100 100 100 100 100 100 99 97 47 9 4 41 3 90 100 100 100 100 100 100 100 39 10 100 100 43
100 100 100 84 80 100 100 100 100 100 100 100 85 51 100 100 100 100 100 100 100 100 100 100 100 100 35 88 100 100 100 100 100 100 100 100 100 100 100 100 98 100 100 59
100 100 100 100 34 24 100 100 100 100 100 100 93 15 100 100 100 100 100 100 100 100 100 100 100 100 66 70 100 100 100 100 100 100 100 100 100 97 100 100 100 97 100 98
98 100 100 100 99 5 25 100 100 100 100 100 100 99 98 100 100 100 100 100 100 100 99 76 100 100 89 17 97 100 100 100 100 100 100 100 100 100 100 100 100 100 100 100
100 91 100 100 100 100 31 100 100 100 100 100 100 100 100 100 100 100 100 97 85 99 100 100 96 100 91 34 26 99 100 100 100 100 100 100 100 100 100 90 94 100 100 99
100 100 100 100 100 100 100 100 100 100 100 100 100 100 100 100 100 100 100 100 100 100 100 100 94 99 99 84 68 28 97 100 97 76 100 100 100 100 100 90 100 96 70 22
98 100 100 100 100 100 100 100 100 100 100 100 99 100 100 100 100 100 100 100 100 100 100 93 100 100 100 90 78 31 8 46 100 67 100 100 100 100 100 100 98 100 96 11
97 100 100 100 100 100 100 100 100 100 100 100 100 99 100 100 100 100 100 100 100 95 100 100 77 100 100 87 62 64 99 77 62 54 100 100 100 100 100 100 99 99 100 62
100 100 100 100 100 100 100 77 96 100 100 100 90 100 100 100 100 100 100 100 100 82 100 84 100 100 100 100 97 100 100 93 19 100 59 65 100 100 100 98 100 100 99 99
100 100 100 100 100 100 100 100 100 100 100 100 64 87 100 64 100 100 100 100 100 98 98 87 51 100 100 100 100 100 99 42 94 82 100 100 100 79 100 26 91 88 74 66
100 100 100 100 100 100 100 100 100 100 100 74 87 100 100 100 100 100 100 100 100 100 100 100 84 100 100 100 100 100 100 99 100 99 100 100 100 98 36 17 7 97 100 100
100 100 100 100 100 100 100 100 100 100 100 100 100 100 100 100 100 100 100 100 100 100 100 100 100 100 100 100 100 100 100 100 100 100 100 100 100 100 100 83 80 74 100 100
100 100 100 100 100 100 100 100 100 100 100 100 100 100 100 100 100 100 100 100 100 100 100 100 100 100 100 99 98 100 100 98 100 100 100 100 100 100 100 100 100 96 100 100
100 100 100 100 100 100 100 100 100 100 100 100 100 100 100 100 100 100 100 100 95 98 98 100 100 100 97 97 100 93 92 89 97 99 99 98 100 100 100 100 100 100 100 100
100 100 100 100 100 100 100 100 100 100 100 100 100 100 90 100 96 90 100 98 99 94 100 100 100 100 95 97 100 95 100 100 99 100 100 100 100 100 100 100 100 100 100 100
100 94 100 100 96 100 100 100 100 100 100 100 100 100 100 100 100 84 14 99 68 93 100 100 100 100 100 100 100 100 100 100 100 100 100 100 100 100 100 100 100 100 100 100
100 96 94 77 100 100 100 100 96 100 100 100 99 68 87 87 95 100 100 100 100 100 100 100 100 100 100 100 100 100 100 99 100 100 100 100 100 100 100 100 100 100 100 100
100 100 100 100 100 91 93 100 100 100 100 100 100 100 100 100 100 100 100 100 100 100 100 100 100 100 100 100 100 100 100 100 100 100 100 100 100 100 100 100 100 100 100 100
100 100 100 100 100 100 100 100 100 98 100 100 100 98 100 62 70 99 100 100 100 100 100 100 100 100 100 100 100 100 100 100 100 100 100 100 100 100 100 100 100 100 100 100